User: anonymous   Login
Location: Unspecified
(0.0000°N, 0.0000°E)
Time: 23:56:39
(UTC+00:00)
Language:

TBA - TO BE ASSIGNED - Orbit

View from above orbital plane
View from above orbital plane
View from above satellite
View from above satellite

Ground track
Ground track

The orbit is defined by the following mean orbital elements,

1 68982U          26145.27522177 +.00000000 +00000-0 +14102-3 0 00008
2 68982  97.7360  43.1358 0002634 214.2240 145.8809 14.91183832    06
Epoch (UTC): 25 May 2026 06:36:19
Eccentricity: 0.0002634
inclination: 97.7360°
perigee height: 592 km
apogee height: 596 km
right ascension of ascending node: 43.1358°
argument of perigee: 214.2240°
revolutions per day: 14.91183832
mean anomaly at epoch: 145.8809°

The dashed part of the orbit path shows where the satellite is in the earth's shadow,  

DLR